Tracking 31030 objects as of 17-Jul-2025
HD Live streaming from Space Station
objects crossing your sky now

STARLINK-6219

Track STARLINK-6219 now!
10-day predictions
STARLINK-6219 is classified as:


NORAD ID: 56892
Int'l Code: 2023-083S
Perigee: 565.2 km
Apogee: 567.3 km
Inclination: 43.0 °
Period: 95.8 minutes
Semi major axis: 6937 km
RCS: Unknown
Launch date: June 12, 2023
Source: United States (US)
Launch site: AIR FORCE EASTERN TEST RANGE (AFETR)
Your satellite tracking list
Your tracking list is empty




NASA's NSSDC Master Catalog

Two Line Element Set (TLE):
1 56892U 23083S   25197.56466557 -.00000136  00000-0  49994-5 0  9995
2 56892  43.0046 284.5926 0001474 268.4634  91.6040 15.02533069116152
Source of the keplerian elements: AFSPC